[[[{"header":{"parameterUnit":"kt","parameterCategory":2,"dx":1,"dy":1,"la1":30.253999710083008,"la2":30.299108505249023,"lo1":-89.0895004272461,"lo2":-89.04439544677734,"nx":28,"ny":28,"refTime":"2022-09-25T21:00:00:Z","depth":0,"parameterNumber":1,"parameterNumberName":"U-component_of_WINDS"},"data":[0.0975,0.1079,0.1126,0.1267,0.1335,0.144,0.1494,0.1568,0.1641,0.1774,0.186,0.1921,0.2015,0.2132,0.2229,0.2255,0.2293,0.2292,0.2324,0.2279,0.2276,0.2273,0.2251,0.23,0.23,0.2363,0.2364,0.2364,0.0931,0.0998,0.1087,0.1206,0.1283,0.1311,0.141,0.1473,0.1568,0.1659,0.1747,0.187,0.1974,0.2072,0.2182,0.2234,0.2256,0.226,0.2258,0.2272,0.2226,0.2201,0.224,0.224,0.224,0.224,0.224,0.224,0.0865,0.0926,0.1027,0.1125,0.1199,0.1279,0.1347,0.142,0.1511,0.163,0.1674,0.1784,0.1886,0.2046,0.2113,0.2202,0.2207,0.2229,0.2235,0.2239,0.2236,0.2135,0.2224,0.2224,0.2224,0.2224,0.2224,0,0.0833,0.0869,0.0959,0.1063,0.1138,0.1224,0.1313,0.1356,0.1455,0.1526,0.1633,0.1705,0.1846,0.1954,0.2071,0.2138,0.218,0.219,0.2206,0.2186,0.215,0.2169,0.209,0.2188,0.2188,0.2188,0.2188,0.2188,0.077,0.0836,0.0967,0.1023,0.1084,0.1175,0.124,0.1323,0.1389,0.1512,0.1564,0.1673,0.1766,0.1933,0.2025,0.2133,0.2155,0.2186,0.2172,0.2147,0.2155,0.215,0.2157,0.2187,0.2187,0.2187,0.2188,0,0.0729,0.081,0.093,0.1055,0.1089,0.1155,0.1263,0.133,0.1397,0.1498,0.1527,0.1633,0.174,0.1828,0.1969,0.2012,0.2123,0.2142,0.2087,0.2095,0.2132,0.2127,0.2237,0.2256,0.2206,0.2206,0.2207,0,0.0708,0.0793,0.091,0.0975,0.1072,0.1154,0.1248,0.1316,0.1407,0.1488,0.1548,0.1623,0.1724,0.1812,0.1876,0.1983,0.2011,0.205,0.2066,0.2045,0.204,0.2084,0.2082,0.2101,0.2101,0.21,0.2099,0,0.0636,0.08,0.0907,0.0958,0.1102,0.1151,0.1214,0.1318,0.1382,0.1481,0.1524,0.1634,0.1694,0.1779,0.1859,0.1846,0.1993,0.1993,0.2034,0.2032,0.2064,0.2061,0.2135,0.2099,0.2099,0.2098,0.2098,0,0.0633,0.0728,0.0871,0.0992,0.1032,0.1104,0.1216,0.1298,0.1403,0.1447,0.1527,0.1579,0.1681,0.1672,0.1815,0.1774,0.183,0.1878,0.1883,0.1899,0.1888,0.1918,0.1979,0.1989,0.191,0.1909,0.1907,0,0.0528,0.0695,0.0766,0.0902,0.0991,0.1051,0.1133,0.1225,0.1291,0.1378,0.1453,0.1553,0.1566,0.1611,0.1669,0.1751,0.1804,0.1747,0.1874,0.1878,0.1843,0.19,0.1887,0.1955,0.1889,0.1891,0.1892,0,0.0458,0.0632,0.0652,0.0713,0.0848,0.0925,0.1018,0.1135,0.1189,0.1288,0.1369,0.1514,0.1529,0.1603,0.1659,0.1715,0.177,0.1725,0.173,0.173,0.1887,0.1874,0.1885,0.1796,0.1798,0.18,0.1877,0,0.0432,0.0528,0.0584,0.072,0.0793,0.0884,0.0977,0.1041,0.1086,0.1154,0.1278,0.1381,0.1504,0.1541,0.1588,0.1689,0.1686,0.1703,0.1704,0.1741,0.1769,0.178,0.1654,0.1654,0.1655,0.1655,0,0,0.0311,0.0451,0.0529,0.0623,0.0689,0.0753,0.0842,0.0915,0.1063,0.1108,0.1108,0.1327,0.1413,0.1553,0.1572,0.1623,0.165,0.1635,0.1722,0.1729,0.1736,0.1764,0.1775,0.1656,0.1657,0.1657,0.1657,0,0.0322,0.0402,0.0488,0.0566,0.0685,0.0754,0.0774,0.0905,0.0954,0.1076,0.113,0.1216,0.1392,0.1474,0.1539,0.1619,0.1657,0.165,0.166,0.1724,0.173,0.1736,0.1765,0.1774,0.1658,0.1658,0.1658,0,0.0269,0.0363,0.0415,0.057,0.065,0.0742,0.0764,0.0862,0.0932,0.1003,0.1123,0.1194,0.1314,0.1435,0.1494,0.1497,0.1658,0.1626,0.1625,0.1635,0.1702,0.171,0.1716,0.1628,0.1628,0.1627,0,0,0.0265,0.0355,0.0485,0.0579,0.0625,0.073,0.0789,0.0841,0.0945,0.0986,0.1079,0.1181,0.1284,0.135,0.1452,0.1572,0.1604,0.1618,0.1619,0.162,0.163,0.1697,0.1704,0.1625,0.1625,0.1625,0,0,0.0266,0.0418,0.0445,0.0565,0.066,0.0797,0.0852,0.0889,0.099,0.099,0.1086,0.1118,0.1233,0.1303,0.1264,0.1454,0.1453,0.1464,0.1405,0.1408,0.141,0.1391,0.1305,0,0,0,0,0,0.0324,0.0399,0.0421,0.0455,0.0654,0.0783,0.081,0.0888,0.0884,0.0926,0.1009,0.1047,0.1301,0.127,0.1304,0.1346,0.16,0.1605,0.1609,0.1561,0.1564,0.1565,0,0,0,0,0,0,0.0339,0.038,0.0419,0.0557,0.0603,0.0782,0.0792,0.0816,0.0882,0.0887,0.1029,0.1051,0.1123,0.1258,0.1287,0.1326,0.1295,0.1602,0.1606,0.1609,0.1562,0.1564,0.1565,0,0,0,0,0,0.035,0.0384,0.0681,0.0557,0.0597,0.0718,0.079,0.081,0.0863,0.0993,0.1016,0.0916,0.1122,0.1153,0.1276,0.131,0.1275,0.1286,0.1604,0.1607,0.161,0.1563,0,0,0,0,0,0,0.0359,0.0404,0.0691,0.0706,0.0535,0.071,0.074,0.0804,0.0967,0.099,0.0885,0.0887,0.1122,0.1146,0.1169,0.13,0.1259,0.127,0.1277,0.1607,0.1609,0.1611,0,0,0,0,0,0,0.0387,0.0416,0.0699,0.0667,0.0679,0.0702,0.0728,0.0846,0.0968,0.085,0.0856,0.0884,0.1088,0.1141,0.116,0.134,0.1247,0.1257,0.1264,0.1269,0.1609,0.161,0,0,0,0,0,0,0.04,0.0426,0.0663,0.0673,0.0683,0.0859,0.0808,0.1008,0.0936,0.0842,0.0932,0.0931,0.1083,0.1103,0.1153,0.1325,0.1337,0.1247,0.1254,0.1259,0.1263,0,0,0,0,0,0,0,0.0412,0.0221,0.0601,0.0678,0.0687,0.0846,0.085,0.0854,0.0936,0.0934,0.0933,0.0931,0.1187,0.1198,0.121,0.1313,0,0,0.1246,0.1251,0,0,0,0,0,0,0,0,0.0212,0.0219,0.0602,0.0605,0.0608,0.0846,0.085,0.0853,0.0936,0.0934,0.0933,0.0932,0.119,0.1199,0.1209,0,0,0,0,0,0,0,0,0,0,0,0,0,0,0,0.0602,0.0605,0,0.0847,0.085,0.0852,0.0935,0.0934,0.0933,0.0932,0.1192,0.12,0.1208,0,0,0,0,0,0,0,0,0,0,0,0,0,0,0,0,0,0,0,0,0,0,0,0,0,0,0,0,0,0,0,0,0,0,0,0,0,0,0,0,0,0,0,0,0,0,0,0,0,0,0,0,0,0,0,0,0,0,0,0,0,0,0,0,0,0,0,0,0]}],[{"header":{"parameterUnit":"kt","parameterCategory":2,"dx":1,"dy":1,"la1":30.253999710083008,"la2":30.299108505249023,"lo1":-89.0895004272461,"lo2":-89.04439544677734,"nx":28,"ny":28,"refTime":"2022-09-25T21:00:00:Z","depth":0,"parameterNumber":2,"parameterNumberName":"V-component_of_WINDS"},"data":[3.5562,3.5675,3.5647,3.5764,3.576,3.5833,3.5851,3.5872,3.5883,3.5969,3.6015,3.6002,3.6003,3.6051,3.6099,3.6092,3.611,3.6167,3.6148,3.5918,3.5884,3.5851,3.5818,3.6175,3.6175,3.6385,3.6387,3.6389,3.5384,3.538,3.5437,3.5472,3.5518,3.5445,3.5469,3.5512,3.5582,3.5599,3.5643,3.5719,3.5777,3.5759,3.5809,3.586,3.5827,3.5875,3.5865,3.5865,3.5621,3.5586,3.5899,3.5899,3.5899,3.5899,3.5899,3.5899,3.5052,3.5123,3.5128,3.5188,3.52,3.5225,3.5288,3.5269,3.5325,3.5375,3.5337,3.5417,3.5429,3.548,3.5493,3.5553,3.5496,3.5539,3.5548,3.5557,3.5567,3.5248,3.5563,3.5562,3.5561,3.556,3.5559,0,3.4797,3.4769,3.4823,3.4868,3.4911,3.4946,3.4972,3.5012,3.4948,3.4999,3.5067,3.5103,3.5176,3.5237,3.5282,3.5285,3.5212,3.5208,3.5235,3.5246,3.525,3.5238,3.483,3.5196,3.5193,3.5191,3.5189,3.5188,3.445,3.4541,3.4537,3.4578,3.4586,3.4657,3.4692,3.463,3.467,3.4696,3.4764,3.4827,3.4873,3.4993,3.4971,3.5026,3.499,3.513,3.4998,3.5006,3.4979,3.4969,3.4974,3.5154,3.5158,3.5162,3.5165,0,3.4254,3.4212,3.4345,3.4334,3.4334,3.4432,3.4421,3.4494,3.447,3.4564,3.4583,3.4546,3.4617,3.4574,3.465,3.4624,3.4778,3.4748,3.4769,3.4757,3.487,3.4856,3.5267,3.5313,3.4955,3.4958,3.4961,0,3.3936,3.4061,3.3988,3.4069,3.4203,3.4136,3.4271,3.4263,3.4274,3.4348,3.4262,3.4333,3.4268,3.4334,3.4297,3.4417,3.4435,3.4419,3.4406,3.4421,3.4421,3.4435,3.4413,3.4387,3.4385,3.4384,3.4382,0,3.3626,3.374,3.387,3.3889,3.3891,3.3955,3.3959,3.3972,3.401,3.4053,3.4075,3.4134,3.4163,3.4208,3.4158,3.4069,3.4309,3.4176,3.4291,3.4292,3.434,3.4336,3.4718,3.4379,3.4379,3.4378,3.4377,0,3.336,3.3404,3.3606,3.3601,3.3634,3.3725,3.3771,3.384,3.386,3.3841,3.3876,3.3811,3.3921,3.3789,3.3936,3.383,3.3864,3.3861,3.3869,3.3868,3.3719,3.3927,3.4305,3.4337,3.3876,3.3872,3.3868,0,3.301,3.3204,3.3146,3.3342,3.3423,3.3313,3.3413,3.3435,3.3419,3.3485,3.3468,3.3548,3.3442,3.3459,3.354,3.3523,3.3661,3.3506,3.3594,3.3598,3.3579,3.3929,3.399,3.4229,3.3815,3.382,3.3824,0,3.2732,3.2735,3.2775,3.2789,3.281,3.2882,3.2999,3.3061,3.3107,3.3148,3.3238,3.3356,3.3275,3.331,3.3265,3.335,3.3566,3.3254,3.3253,3.3302,3.3789,3.3844,3.3885,3.3517,3.3523,3.3528,3.3782,0,3.2317,3.2414,3.2522,3.2567,3.2617,3.2742,3.2693,3.2751,3.2699,3.2678,3.2819,3.2832,3.2899,3.2939,3.2893,3.3105,3.3061,3.2978,3.284,3.3074,3.3155,3.319,3.2722,3.2717,3.2714,3.2711,0,0,3.1987,3.2123,3.2059,3.217,3.2206,3.2091,3.2226,3.2251,3.2303,3.233,3.2254,3.242,3.2435,3.2609,3.2679,3.2712,3.2742,3.2664,3.2966,3.2995,3.3021,3.3109,3.3146,3.2705,3.2703,3.2702,3.2701,0,3.1823,3.1841,3.1978,3.1998,3.2027,3.1999,3.2033,3.2041,3.2035,3.2176,3.2078,3.2158,3.2299,3.2321,3.2352,3.2644,3.2563,3.2671,3.2836,3.2932,3.2965,3.2995,3.3088,3.3124,3.2692,3.2693,3.2693,0,3.1532,3.1538,3.1601,3.1684,3.1703,3.1796,3.1639,3.1748,3.1814,3.1686,3.1827,3.1829,3.186,3.2037,3.2115,3.2047,3.2402,3.2288,3.2309,3.2314,3.2404,3.2444,3.248,3.2005,3.2002,3.2,0,0,3.1397,3.1488,3.1475,3.1646,3.1664,3.1626,3.1673,3.1626,3.1656,3.1669,3.1668,3.1701,3.1779,3.1834,3.1907,3.211,3.2106,3.2205,3.2237,3.2264,3.2284,3.238,3.2421,3.1992,3.1992,3.1991,0,0,3.1332,3.1322,3.1264,3.1457,3.1488,3.1487,3.1592,3.1522,3.1583,3.1563,3.1491,3.1497,3.1662,3.167,3.1561,3.1855,3.1721,3.1746,3.1843,3.1884,3.1915,3.1906,3.1401,0,0,0,0,0,3.1138,3.1322,3.127,3.1295,3.1404,3.1516,3.1529,3.1473,3.1375,3.1459,3.1447,3.1361,3.1594,3.1496,3.1523,3.1642,3.1883,3.1902,3.192,3.2093,3.2136,3.2172,0,0,0,0,0,0,3.1147,3.1179,3.1265,3.1273,3.1297,3.1509,3.1331,3.132,3.1365,3.1346,3.1366,3.1362,3.1317,3.1479,3.1504,3.1618,3.1393,3.189,3.1907,3.1922,3.2107,3.2142,3.2172,0,0,0,0,0,3.1155,3.1179,3.1369,3.127,3.1291,3.1259,3.1324,3.1313,3.1347,3.133,3.1322,3.13,3.1322,3.1339,3.1493,3.1608,3.1375,3.1384,3.1901,3.1914,3.1926,3.2125,0,0,0,0,0,0,3.116,3.1171,3.1372,3.1376,3.1196,3.1246,3.1251,3.1308,3.1326,3.1321,3.1258,3.1243,3.1328,3.134,3.1354,3.1608,3.1361,3.137,3.1376,3.1911,3.1921,3.193,0,0,0,0,0,0,3.1157,3.1176,3.1374,3.1284,3.1277,3.1234,3.1239,3.1365,3.1328,3.1254,3.1241,3.1252,3.1308,3.1342,3.1352,3.155,3.135,3.1359,3.1365,3.1369,3.1919,3.1927,0,0,0,0,0,0,3.1164,3.118,3.1282,3.1277,3.1271,3.1313,3.1344,3.1459,3.125,3.1255,3.1229,3.122,3.1312,3.1321,3.1351,3.1546,3.1549,3.135,3.1356,3.1361,3.1364,0,0,0,0,0,0,0,3.1169,3.1078,3.1347,3.1272,3.1266,3.1414,3.1415,3.1416,3.1248,3.124,3.1232,3.1224,3.1297,3.1307,3.1317,3.1542,0,0,3.1349,3.1354,0,0,0,0,0,0,0,0,3.107,3.1076,3.1347,3.1348,3.1349,3.1414,3.1415,3.1416,3.1246,3.124,3.1233,3.1227,3.13,3.1308,3.1316,0,0,0,0,0,0,0,0,0,0,0,0,0,0,0,3.1347,3.1348,0,3.1414,3.1415,3.1416,3.1245,3.124,3.1235,3.123,3.1302,3.1309,3.1316,0,0,0,0,0,0,0,0,0,0,0,0,0,0,0,0,0,0,0,0,0,0,0,0,0,0,0,0,0,0,0,0,0,0,0,0,0,0,0,0,0,0,0,0,0,0,0,0,0,0,0,0,0,0,0,0,0,0,0,0,0,0,0,0,0,0,0,0,0]}]]]